Lid_Strength_Index
2 4 5 6 11 13 15 14 12 12 12 9 8 9 9 8 9 12 5 4 0 0 -0 -1 -1 -1 -1 -1 -1 -1 -2 -2 -2 -2 -2 -2 -2 -2 -2 -2 -2 -2 -2 -1 -2 -2 -2 -2 -2
2 4 5 10 13 16 15 13 12 11 9 8 9 9 8 9 6 5 4 1 -0 -0 -0 -0 -1 -1 -1 -1 -1 -1 -2 -2 -2 -2 -2 -2 -2 -2 -2 -2 -2 -2 -2 -2 -2 -2 -2 -2 -2
4 5 8 12 15 15 14 13 12 10 9 11 9 7 7 8 5 5 3 0 0 0 -0 -0 -1 -1 -1 -1 -2 -1 -1 -2 -2 -2 -2 -2 -2 -2 -2 -2 -2 -2 -2 -2 -2 -2 -2 -2 -2
6 7 10 13 15 14 13 12 11 10 11 9 8 9 6 5 5 4 2 0 0 0 -0 0 -1 -2 -2 -2 -2 -2 -2 -2 -2 -2 -2 -2 -2 -2 -2 -2 -2 -2 -2 -1 -1 -1 -2 -2 -2
8 10 13 15 14 12 13 11 11 11 11 11 10 9 9 5 4 2 1 1 1 0 -0 -0 -1 -1 -2 -2 -2 -2 -2 -2 -2 -1 -2 -2 -2 -2 -2 -2 -2 -2 -1 -1 -1 -1 -1 -1 -1
9 11 14 16 15 13 12 11 11 12 11 10 9 9 8 7 4 5 4 4 2 0 -0 -0 1 -0 -1 -1 -2 -2 -2 -2 -2 -2 -2 -2 -2 -2 -2 -2 -2 -2 -2 -0 0 0 -0 -0 -0
11 13 15 15 14 13 12 10 11 11 11 11 8 10 8 7 5 6 8 8 6 2 1 0 0 1 1 -0 -0 -1 -2 -2 -1 -2 -2 -2 -2 -2 -2 -2 -2 -2 -2 -1 0 1 1 1 1
11 12 16 15 14 13 11 11 11 11 12 10 10 11 9 8 6 8 9 10 9 8 7 4 1 1 0 -0 1 1 -0 -1 -1 -1 -1 -0 -1 -1 -2 -1 -2 -2 -2 -2 -0 0 1 1 1
11 14 16 14 13 12 11 11 11 11 10 11 10 10 9 6 8 10 10 11 10 9 9 9 5 1 -0 -0 1 2 1 0 0 0 1 1 -1 -1 -1 -0 -1 -2 -2 -2 -1 0 1 2 2
12 15 13 12 12 12 11 11 10 11 11 12 11 10 9 7 9 9 10 11 12 11 8 9 8 7 4 -0 -0 -0 0 -1 -1 -0 0 -0 -1 -1 -0 1 -0 -1 -1 -2 -0 1 2 5 8
13 14 12 12 11 10 11 11 11 12 13 11 10 10 9 8 8 9 10 11 11 11 9 9 8 7 7 2 0 -0 0 -0 -0 0 0 1 0 0 1 1 1 2 2 2 3 4 5 6 7
12 11 12 10 10 10 11 11 12 11 11 10 10 9 10 9 8 9 9 9 9 9 9 8 8 8 7 6 1 1 2 1 1 1 1 1 1 1 1 1 2 3 3 4 4 4 4 5 5
13 12 11 10 10 11 10 11 11 11 11 11 10 10 10 10 9 10 9 9 8 7 7 6 6 7 7 7 0 2 3 3 2 1 1 1 1 2 1 2 3 4 4 4 5 5 5 5 5
11 11 11 10 10 11 11 12 11 11 11 11 10 11 11 10 10 11 10 9 8 7 7 6 5 4 4 3 1 3 3 3 3 3 1 1 1 2 3 4 4 4 4 5 5 6 6 6 6
11 12 11 11 11 11 11 12 12 11 12 12 12 12 11 11 11 11 10 9 8 8 8 6 5 3 2 2 3 3 4 5 5 5 4 4 4 4 5 5 5 5 4 5 5 6 6 7 6
13 13 15 12 11 11 11 14 11 11 12 12 12 13 12 12 11 11 10 10 8 9 8 6 4 3 3 3 4 5 5 6 6 6 6 5 5 5 6 6 6 5 7 7 9 9 9 9 8
14 16 15 13 11 12 13 14 12 13 13 13 13 13 13 12 12 12 11 9 9 9 8 8 5 5 5 5 6 7 7 7 7 7 7 7 7 7 7 7 8 7 8 11 11 12 11 10 10
16 16 15 15 13 13 14 14 12 13 13 13 13 13 13 12 11 12 11 10 9 9 8 8 6 6 7 8 8 9 9 9 9 8 8 9 9 9 10 10 10 10 11 13 13 13 13 12 11
14 15 15 14 12 13 14 14 12 13 14 14 13 13 13 12 11 12 11 10 10 9 9 9 7 7 8 9 9 9 11 11 11 10 10 10 11 11 12 12 13 13 13 14 14 14 13 15 14
14 15 15 14 13 13 14 14 13 13 13 12 12 12 12 12 14 13 12 11 11 10 9 9 7 7 8 8 10 12 12 13 13 12 12 12 13 13 13 14 14 15 15 15 15 15 16 16 16
14 15 15 14 14 14 15 16 15 13 12 12 11 10 11 11 13 14 13 12 11 11 10 9 8 7 8 11 12 13 13 13 14 13 14 14 14 14 14 15 15 16 16 16 17 16 16 18 17
15 13 13 14 15 17 15 19 16 15 13 13 12 12 11 12 13 13 12 12 11 10 10 9 8 9 11 11 12 12 12 13 14 14 15 15 15 16 15 16 16 16 16 17 17 17 17 17 18
13 12 13 15 16 18 19 19 17 16 15 14 12 12 12 12 13 13 12 12 11 10 9 8 9 12 12 12 11 11 12 15 15 15 15 17 17 16 16 16 17 17 17 17 17 17 17 17 18
12 13 14 16 17 20 17 17 17 16 14 14 12 12 12 13 14 14 12 12 11 10 8 8 12 12 12 13 13 13 15 16 16 16 16 17 17 17 17 17 17 17 17 17 17 17 17 18 18
13 14 19 20 21 20 18 19 15 14 13 13 12 12 13 15 15 15 13 12 12 11 10 10 12 13 13 13 14 15 15 15 15 16 17 17 17 18 18 17 17 17 17 17 17 18 18 18 18
14 15 18 23 22 21 18 20 16 14 13 13 13 13 15 16 15 14 13 12 12 11 10 11 12 13 13 14 15 15 15 15 15 16 17 17 17 17 18 18 17 18 18 18 18 18 18 19 19
15 16 14 17 25 23 19 17 14 14 14 13 13 15 16 15 15 15 14 12 12 12 12 12 13 13 14 14 15 15 15 16 16 18 17 18 18 18 18 17 18 18 18 18 18 18 19 19 20
14 13 17 19 24 26 20 19 17 15 14 14 13 15 15 15 15 15 14 14 13 13 13 14 13 14 14 15 15 16 16 16 17 17 18 18 18 18 18 18 18 18 19 19 19 20 20 20 20
16 16 17 16 19 22 24 17 15 14 13 13 13 13 14 15 16 15 14 15 14 15 15 15 15 14 15 15 15 16 16 17 17 18 18 18 18 18 18 18 19 19 19 19 20 20 20 20 20
15 15 15 18 20 19 19 16 14 14 14 13 13 13 15 15 16 16 16 16 16 16 16 16 15 15 15 15 16 16 17 18 18 18 19 18 19 19 19 19 19 19 19 20 19 20 20 20 20